Regional Weather Roundup
Issued by NWS

Home | Current Version | Previous Version | Text Only | Print | Product List | Glossary On
Versions: 1 2 3 4 5 6 7 8 9 10 11 12 13 14 15 16 17 18 19 20 21 22 23 24 25 26 27 28 29 30 31 32 33 34 35 36 37 38 39 40 41 42 43 44 45 46 47 48 49 50
000
ASUS43 KOAX 300102
RWRNE

WEATHER ROUNDUP FOR NEBRASKA
NATIONAL WEATHER SERVICE OMAHA NE
800 PM CDT SUN MAR 29 2015

NOTES: SATELLITE DATA IS BEING USED TO AUGMENT CLOUD COVER ABOVE
       12000 FEET.
       "FAIR" INDICATES FEW OR NO CLOUDS BELOW 12,000 FEET WITH NO
       SIGNIFICANT WEATHER AND/OR OBSTRUCTIONS TO VISIBILITY.

  * THESE STATIONS DO NOT REPORT WEATHER SUCH AS RAIN...SNOW OR FOG.

NEZ001>004-019>022-054>056-300200-
NEBRASKA PANHANDLE

CITY           SKY/WX    TMP DP  RH WIND       PRES   REMARKS
SCOTTSBLUFF    PTCLDY    59  24  26 S7        30.11R
ALLIANCE       MOCLDY    60  22  23 CALM      30.10F
CHADRON        PTCLDY    60  24  25 CALM      30.07F
SIDNEY         CLEAR     54  26  34 S6        30.15S
$$

NEZ057>060-069>072-079>082-300200-
SOUTHWEST NEBRASKA

CITY           SKY/WX    TMP DP  RH WIND       PRES   REMARKS
NORTH PLATTE   CLEAR     56  18  22 N3        30.13S
IMPERIAL         N/A     59  19  21 E5        30.15R
MCCOOK         CLEAR     60  17  18 NE5       30.15R
$$

NEZ005>010-023>029-035>040-094-300200-
NORTH CENTRAL NEBRASKA

CITY           SKY/WX    TMP DP  RH WIND       PRES   REMARKS
VALENTINE      CLEAR     55  22  27 N3        30.09F
AINSWORTH      CLEAR     54  19  24 W5        30.11S
BROKEN BOW     CLEAR     50  17  27 NW6       30.13R
ORD            CLEAR     50  11  20 W5        30.12R
$$

NEZ041-046>049-061>064-073>077-083>087-300200-
SOUTH CENTRAL NEBRASKA

CITY           SKY/WX    TMP DP  RH WIND       PRES   REMARKS
GRAND ISLAND   CLEAR     53  16  23 N6        30.14R
HASTINGS       CLEAR     53  15  22 N7        30.14R
KEARNEY *      CLEAR     57  12  17 N7        30.15R
$$

NEZ011>018-030>034-042>045-300200-
NORTHEAST NEBRASKA

CITY           SKY/WX    TMP DP  RH WIND       PRES   REMARKS
NORFOLK        CLEAR     55  20  25 NW12      30.09R
ALBION         CLEAR     54  16  22 N5        30.11R
BLAIR          CLEAR     55  20  26 NW9       30.08R
COLUMBUS *     CLEAR     50  19  29 NW7       30.13R
$$

NEZ050>053-065>068-078-088>093-300200-
SOUTHEAST NEBRASKA

CITY           SKY/WX    TMP DP  RH WIND       PRES   REMARKS
LINCOLN        CLEAR     58  23  26 NW8       30.12R
OMAHA EPPLEY   PTCLDY    52  23  32 NW9       30.08R
FALLS CITY     CLEAR     54  29  38 NW7       30.10R
$$

NEZ044-045-051>053-067-300200-
OMAHA AREA

CITY           SKY/WX    TMP DP  RH WIND       PRES   REMARKS
OMAHA EPPLEY   PTCLDY    52  23  32 NW9       30.08R
BLAIR          CLEAR     55  20  26 NW9       30.08R
OFFUTT AFB     CLEAR     55  22  28 NW8       30.08R
$$



USA.gov is the U.S. government's official web portal to all federal, state and local government web resources and services.